User: anonymous   Login
Location: Deer Path Park
(40.5570°N, 74.8450°W)
Time: 03:36:50
(UTC-04:00)
Language:

Iridium 49 - Orbit

View from above orbital plane
View from above orbital plane
View from above satellite
View from above satellite

Ground track
Ground track

The orbit data is extracted from the following two-line orbital elements,

1 25108U 97082E   16178.16597756  .00000106  00000-0  30878-4 0  9998
2 25108  86.3956  44.2620 0002316  86.2759  27.4958 14.34217180969349
Epoch (UTC): 26 June 2016 03:59:00
Eccentricity: 0.0002316
inclination: 86.3956°
perigee height: 776 km
apogee height: 779 km
right ascension of ascending node: 44.2620°
argument of perigee: 86.2759°
revolutions per day: 14.34217180
mean anomaly at epoch: 27.4958°
orbit number at epoch: 96934

The dashed part of the orbit path shows where the satellite is in the earth's shadow,  

DLR